Voltar ao catálogo

SL-12 R/B(2)

AtivoHEO
NORAD 25660·ROCKET BODY·🇷🇺 Russia

Lançado Mar 21, 1999 de Baikonur Cosmodrome

Loading…

Próximas Passagens (próximas 24 horas)

TLE

AtualizadoSource: Space-Track

Época: Sep 14, 2026, 14:13 UTC

1 25660U 99013D   26257.59243442 -.00000129  00000-0  00000-0 0  9999
2 25660  13.1212  93.9673 4596390 104.2493  38.1511  1.74923396175665

Acompanhe SL-12 R/B(2) em tempo real com AllMySat

Download on the App Store